CAPE
0 0 0 0 0 0 0 0 0 0 0 0 0 0 0 0 0 0 24 327 669 932 1250 1704 1867 1926 1964 2197 2294 2208 2293 2781 2574 2232 1963 1794 1520 1447 1187 1004 1333 1645 1609 1779
0 0 0 0 0 0 0 0 0 0 0 0 0 0 0 0 0 0 0 21 406 1069 1326 1431 1710 1848 1829 2042 2387 2599 2558 2601 2790 2465 2416 1940 1812 1520 1289 1060 1366 1762 1848 1777
0 0 0 0 0 0 0 0 0 0 0 0 0 0 0 0 0 0 0 0 20 257 727 1209 1421 1516 1653 2265 2357 2662 2879 2910 2888 1700 2163 2092 1894 1746 1305 1249 1164 1468 1768 2032
0 0 0 0 0 0 0 0 0 0 0 0 0 0 0 0 0 0 0 0 50 130 153 279 630 1197 1471 1559 1818 2714 2946 3083 3051 2843 2651 1626 1927 2027 1688 1546 1081 1257 1529 1645
0 0 0 0 0 0 0 0 0 0 0 0 0 0 0 0 0 0 0 0 0 49 252 611 409 457 565 576 1213 1836 2727 3332 3121 3120 3363 2422 2691 2181 1781 1619 2434 2391 2555 1829
0 0 0 0 0 0 0 0 0 0 0 0 0 0 0 0 0 0 0 0 0 67 130 358 744 771 1069 1067 841 937 2200 3056 3511 3446 3365 3811 3774 3349 2528 2525 2139 1918 1813 1860
0 0 0 0 0 0 0 0 0 0 0 0 0 0 0 0 0 0 0 0 7 149 407 611 789 692 845 949 1000 761 1315 2318 2823 3146 3238 3424 3708 4060 4233 4022 2461 2735 2216 1794
0 0 0 0 0 0 0 0 0 0 0 0 0 0 2 0 0 0 8 28 41 52 64 355 405 486 635 706 955 835 1119 1861 2481 2883 3305 3959 3712 3253 3038 3402 2678 2527 2385 2625
0 0 0 0 0 0 0 0 0 0 0 0 0 0 0 0 0 0 0 0 34 77 90 270 507 549 740 655 948 988 1248 1810 2325 2701 2931 3346 3828 3657 3244 3689 3697 2799 3527 2534
0 0 0 0 0 0 0 0 0 3 0 1 1 3 3 4 0 0 0 6 40 136 116 237 485 529 755 671 813 1043 1172 1689 1823 2422 2430 2440 2971 2811 3444 3528 3259 3650 3383 3310
0 0 0 0 0 0 0 0 0 0 0 0 0 0 18 0 0 3 6 1 40 113 194 263 378 560 726 743 751 1006 961 1216 1750 1985 2270 2942 2950 2837 2782 3025 3131 3158 3301 3820
0 0 0 0 0 0 0 0 0 0 0 6 1 0 0 0 0 0 0 0 25 216 447 560 658 823 866 948 986 1037 1055 1132 1256 1434 1712 1711 1545 2484 2682 2886 2874 2883 2739 2875
0 0 0 0 0 0 0 0 0 0 0 0 0 0 4 7 9 0 131 202 369 322 306 378 446 714 1013 1133 1129 1065 1176 1207 1258 1402 1305 1322 1508 1173 1533 2436 2746 2597 2746 2740
0 0 0 0 0 0 0 0 0 0 0 0 0 0 2 0 0 5 181 187 302 258 209 315 582 805 1095 1207 1383 1114 1012 954 1009 1207 1283 1378 1433 1453 2007 1680 2377 2595 2686 2592
0 0 0 0 0 0 0 0 0 0 0 0 0 0 0 0 0 157 247 228 157 127 230 390 720 948 1124 1275 1368 1318 1170 1155 1137 1226 1339 1307 1042 1240 1626 2036 1707 2346 2723 2662
0 0 0 0 0 0 0 0 0 0 0 0 0 0 42 82 106 139 181 95 27 40 146 514 556 694 856 1170 821 857 1183 1099 1105 1256 1215 1070 898 912 636 690 1495 1914 2170 2319
0 0 0 0 0 0 0 0 0 0 0 0 1 34 95 108 116 196 70 28 73 196 363 494 511 693 935 1209 1072 1106 968 1005 1019 1169 1300 1187 603 470 523 516 496 268 118 84
0 0 0 0 0 0 0 0 0 0 0 1 40 94 76 68 117 44 70 107 109 225 465 643 672 791 1040 1037 995 931 929 828 1010 1081 1113 1148 988 761 717 435 468 631 569 136
0 0 0 0 0 0 0 0 0 7 14 77 102 88 65 62 79 40 60 178 207 318 515 765 911 732 986 823 420 535 743 596 654 705 745 721 924 801 683 688 629 667 714 669
0 0 0 1 5 0 17 57 124 115 34 100 74 62 73 107 130 102 243 380 401 417 669 911 914 942 864 523 101 253 303 253 176 304 341 488 681 635 607 563 440 513 478 446
13 12 12 15 23 16 57 97 82 51 154 111 113 148 202 290 333 398 486 427 522 651 799 915 803 805 600 341 293 265 234 249 264 272 319 409 321 98 426 583 157 151 290 318
6 17 54 81 64 48 54 51 66 205 259 154 257 285 338 475 483 408 392 619 434 554 814 973 829 710 296 117 268 233 319 363 258 250 156 231 302 259 199 576 393 433 406 304
3 32 42 73 121 76 16 23 48 109 240 346 325 342 496 451 310 454 618 470 700 970 894 1042 629 410 156 167 210 436 403 274 277 224 254 257 270 287 302 399 508 520 242 129
65 96 92 67 82 71 40 41 61 190 436 493 630 562 438 514 600 713 697 733 652 1010 890 832 493 170 45 149 106 181 324 193 192 253 159 169 184 206 394 62 19 233 343 145
76 120 91 115 110 102 72 64 134 182 638 791 482 509 688 780 780 748 729 776 570 676 893 762 465 102 99 75 70 132 216 200 123 82 48 46 43 83 147 32 24 2 0 0
33 22 55 54 84 44 29 118 386 653 665 503 592 700 758 742 766 734 702 784 771 550 1021 694 649 148 181 83 97 163 281 187 133 74 4 6 16 13 6 10 0 0 0 1
CIN
0 0 0 0 0 0 0 0 0 0 0 0 0 0 0 0 0 0 -93 -70 -51 -64 -112 -160 -170 -134 -102 -112 -131 -154 -118 -89 -81 -98 -75 -76 -95 -76 -82 -77 -39 -20 -21 -5
0 0 0 0 0 0 0 0 0 0 0 0 0 0 0 0 0 0 0 -34 -77 -64 -99 -124 -116 -108 -121 -128 -94 -77 -105 -114 -109 -79 -79 -44 -39 -62 -83 -87 -49 -24 -19 -16
0 0 0 0 0 0 0 0 0 0 0 0 0 0 0 0 0 0 0 0 -117 -141 -133 -151 -122 -113 -95 -102 -98 -85 -73 -87 -88 -130 -36 -45 -40 -35 -114 -148 -134 -82 -42 -21
0 0 0 0 0 0 0 0 0 0 0 0 0 0 0 0 0 0 0 0 -77 -146 -184 -214 -176 -171 -160 -170 -151 -86 -80 -69 -34 -13 -9 -182 -158 -62 -105 -129 -168 -130 -85 -61
0 0 0 0 0 0 0 0 0 0 0 0 0 0 0 0 0 0 0 0 0 -114 -134 -140 -199 -235 -239 -277 -225 -153 -95 -55 -52 -6 0 -56 -27 -23 -80 -55 -41 -51 -28 -72
0 0 0 0 0 0 0 0 0 0 0 0 0 0 0 0 0 0 0 0 0 -98 -117 -145 -157 -193 -194 -206 -248 -280 -154 -70 -41 -19 -7 0 0 0 -1 -37 -70 -72 -58 -67
0 0 0 0 0 0 0 0 0 0 0 0 0 0 0 0 0 0 0 0 -24 -72 -74 -76 -103 -161 -175 -195 -222 -268 -217 -86 -35 -37 -23 -5 0 0 0 0 -28 -11 -24 -59
0 0 0 0 0 0 0 0 0 0 0 0 0 0 0 0 0 0 -77 -88 -73 -86 -99 -98 -104 -139 -150 -175 -186 -222 -220 -106 -36 -12 -29 -5 -2 0 0 0 0 0 -8 -6
0 0 0 0 0 0 0 0 0 0 0 0 0 0 0 0 0 0 0 -2 -69 -103 -118 -108 -102 -136 -151 -156 -159 -192 -170 -106 -55 -18 -23 -26 -2 0 0 0 0 0 0 0
0 0 0 0 0 0 0 0 0 0 0 0 0 0 0 -4 0 0 -1 -55 -72 -91 -104 -94 -81 -97 -111 -141 -141 -142 -149 -88 -90 -25 -16 -24 -11 -11 0 0 0 0 0 0
0 0 0 0 0 0 0 0 0 0 0 0 0 0 -6 0 0 -18 -29 -7 -78 -81 -80 -79 -73 -74 -70 -80 -95 -94 -122 -83 -34 -34 -6 0 0 0 0 -1 0 0 0 0
0 0 0 0 0 0 0 0 0 0 0 0 0 0 0 0 0 0 0 0 -40 -38 -23 -30 -38 -37 -31 -45 -51 -58 -83 -62 -41 -44 -14 -10 -77 0 0 0 -3 0 0 0
0 0 0 0 0 0 0 0 0 0 0 0 0 0 -2 -1 0 0 -7 -12 -17 -25 -21 -26 -33 -23 -13 -9 -17 -35 -28 -17 -15 -21 -21 -12 -4 -118 -30 0 0 -1 0 0
0 0 0 0 0 0 0 0 0 0 0 0 0 0 0 0 0 0 0 -17 -25 -30 -34 -33 -29 -15 -5 -3 0 -9 -16 -15 -15 -26 -27 -15 -8 -4 0 -5 0 0 0 0
0 0 0 0 0 0 0 0 0 0 0 0 0 0 0 0 0 -8 -12 -18 -28 -33 -31 -25 -1 0 0 0 0 0 0 0 -1 -5 -2 -3 -36 -13 -1 0 0 0 0 0
0 0 0 0 0 0 0 0 0 0 0 0 0 0 -1 -17 -30 -7 -1 -28 -43 -36 -17 -9 0 -1 0 0 -3 -4 0 0 0 0 0 -2 -28 -28 -139 -190 -8 -4 -4 -2
0 0 0 0 0 0 0 0 0 0 0 0 0 0 -1 -30 -24 -1 -26 -27 -29 -11 -4 -1 0 0 0 0 0 0 0 0 0 0 0 0 -33 -56 -62 -100 -159 -298 -416 -504
0 0 0 0 0 0 0 0 0 0 0 0 0 -11 -16 -18 -12 -19 -21 -7 -5 0 0 0 0 0 0 0 0 0 0 -1 0 0 0 0 0 0 -4 -21 -38 -62 -101 -318
0 0 0 0 0 0 0 0 0 0 0 0 -18 -2 0 0 -5 -2 0 0 0 0 0 0 0 -2 0 0 -11 0 0 0 -3 0 0 -1 0 0 0 0 -3 -4 -6 -39
0 0 0 0 0 0 0 -45 -29 -29 0 -10 -6 -1 0 0 0 0 -3 0 0 0 0 0 0 0 0 0 -55 -5 -5 -4 -4 -21 -16 -7 0 0 0 0 -17 -10 -26 -38
0 0 0 0 0 0 -3 -9 -23 0 -9 -5 0 -3 -4 0 0 0 0 0 0 0 0 0 0 0 0 -1 -3 0 0 -9 0 -4 -2 -1 -2 -45 0 0 -36 -53 -38 -40
0 0 0 0 0 0 -1 -6 0 0 -4 -7 0 0 0 0 0 0 0 0 0 0 0 0 0 0 0 0 -6 0 0 -1 -1 -1 -2 -2 -3 -4 -4 0 0 -5 -1 -8
0 0 0 0 0 -6 -24 -14 -6 -1 -3 0 0 0 0 0 0 0 0 0 0 0 0 0 0 0 0 -11 -17 0 0 -5 0 0 0 -1 -3 -3 0 -2 0 0 -22 -31
0 0 0 0 0 -1 -1 -4 -3 -1 -3 -2 0 0 -4 -1 0 0 0 0 -7 0 0 0 0 -6 -17 -17 -17 -3 -2 -7 -1 0 0 0 0 0 0 -14 0 0 -2 0
0 -2 0 0 0 -1 0 0 -1 -10 0 -1 -5 -2 0 -1 0 0 0 0 -9 -5 0 0 0 -12 -13 -14 -26 -4 -3 0 0 0 -4 -12 -14 -3 -8 -8 -7 0 0 0
0 -2 0 0 -1 -1 -4 -1 0 0 0 0 0 0 0 0 0 0 0 0 0 -7 0 0 0 0 0 -7 -7 -8 -2 -4 -1 -4 -5 0 0 0 0 0 0 0 0 0
Wind_Speed
7 9 5 4 3 5 6 7 6 2 4 7 5 4 5 5 7 9 12 12 9 6 8 10 12 14 14 13 15 16 17 16 14 14 14 12 13 12 11 11 13 14 13 15
8 7 2 3 5 7 7 7 4 1 1 7 5 2 3 4 5 7 11 13 12 10 8 7 9 11 12 13 14 16 17 17 17 13 10 10 10 11 11 12 13 15 16 15
7 8 2 6 8 9 10 8 4 8 4 5 8 9 4 4 3 4 9 10 12 11 9 7 4 1 3 14 14 16 17 18 17 9 9 6 10 10 11 13 13 15 17 17
3 3 5 6 5 7 5 2 6 7 8 5 4 5 10 4 2 4 7 8 11 10 9 8 7 6 5 3 5 15 15 15 16 18 14 15 13 14 12 13 13 13 18 18
8 3 4 3 7 3 9 5 4 6 10 6 10 8 6 6 4 4 7 8 9 9 9 8 8 7 6 5 3 5 11 14 16 16 18 16 17 14 9 12 13 14 14 18
6 0 4 4 2 2 3 8 8 8 9 10 2 6 9 3 5 3 4 6 8 9 7 7 7 5 6 6 7 6 6 11 13 14 20 20 18 18 14 13 11 12 13 14
6 5 5 2 8 6 9 10 7 5 6 6 5 7 10 6 3 3 4 6 8 7 7 7 7 7 6 6 6 5 4 7 12 17 18 21 21 20 17 15 14 14 13 14
7 9 7 2 5 7 4 9 7 10 11 10 7 7 3 4 2 2 3 3 5 6 8 7 6 7 7 8 7 7 5 7 10 14 19 18 20 15 16 16 15 14 14 12
4 4 6 4 1 6 5 7 8 12 11 9 11 0 9 4 5 2 5 5 6 8 8 7 7 7 7 9 9 9 7 7 10 10 11 16 17 18 15 17 15 15 14 13
4 6 6 6 3 3 7 3 8 6 8 8 3 4 10 7 1 7 9 10 9 9 10 9 9 8 8 9 8 9 8 9 9 10 8 10 13 13 17 16 17 16 15 15
3 5 8 4 10 6 6 9 5 7 6 10 12 4 6 4 10 12 13 12 12 9 10 10 11 10 9 8 8 8 8 9 8 7 8 9 11 13 14 14 14 17 16 14
4 7 10 10 7 3 9 9 7 8 8 7 8 12 7 6 7 15 16 15 10 10 9 10 11 11 10 10 9 8 7 8 7 8 8 9 8 12 14 13 16 16 17 17
1 6 8 13 12 9 9 8 8 8 9 14 13 9 2 7 15 11 9 9 10 11 12 11 11 10 9 10 8 8 7 7 8 7 9 10 11 9 13 12 10 12 16 17
2 7 9 12 12 9 8 10 12 12 11 15 15 19 15 17 13 10 8 9 10 12 12 11 11 11 11 9 9 8 9 8 7 7 9 8 9 12 10 14 12 15 16 17
5 9 10 11 13 11 13 16 16 18 18 20 19 22 19 13 10 8 8 10 12 13 14 11 11 11 11 11 9 8 8 8 6 7 7 6 6 8 11 15 15 14 16 16
4 9 8 15 15 15 18 19 20 21 23 22 20 17 6 4 5 9 10 11 13 15 13 11 11 12 13 9 7 8 10 8 7 8 6 5 4 4 3 5 2 5 8 12
6 9 11 15 14 9 15 21 19 14 13 10 11 12 8 10 11 9 11 12 12 13 12 12 13 12 11 8 7 7 8 8 9 7 6 1 2 3 4 2 4 6 5 5
10 9 10 13 12 17 2 3 5 9 10 10 10 9 7 7 8 12 9 9 12 13 13 14 12 10 8 7 6 7 7 7 9 5 6 6 5 1 2 5 4 4 5 6
11 11 11 9 12 13 11 9 6 8 10 4 6 5 8 7 11 16 3 8 13 14 13 12 8 8 8 5 6 6 6 5 6 7 5 5 5 5 3 3 2 4 5 5
7 7 8 10 10 11 4 7 3 2 12 8 3 8 11 10 12 9 15 15 16 16 12 11 8 9 6 3 2 4 5 5 5 7 6 6 6 6 6 5 5 1 3 3
11 11 12 11 11 10 5 5 1 9 5 7 8 9 11 12 12 15 16 16 16 15 13 9 8 7 2 4 4 3 2 2 4 5 6 7 7 6 6 5 4 1 2 2
11 10 10 9 12 14 8 4 8 10 12 11 11 11 12 12 15 16 16 15 16 16 12 7 7 5 4 3 3 4 3 3 3 4 3 4 5 6 6 6 4 6 5 6
11 11 9 7 3 4 0 7 12 13 14 14 12 10 11 13 14 14 13 15 15 16 9 9 7 7 5 2 5 8 2 2 4 3 4 4 4 4 5 6 6 5 7 4
9 7 10 11 12 13 10 14 11 11 10 11 9 10 11 12 13 13 13 13 12 12 9 9 7 7 5 1 3 8 4 2 4 5 4 3 2 2 2 2 4 4 6 7
8 1 9 13 12 16 12 12 16 14 9 8 9 9 9 10 11 11 13 12 10 11 8 9 7 5 5 1 3 7 8 4 5 4 4 4 2 1 3 6 6 6 7 7
10 15 12 12 14 16 15 12 13 13 12 9 10 10 9 9 11 11 11 9 9 9 11 8 9 4 5 2 5 7 6 4 4 6 5 3 4 2 0 1 5 11 9 5
Wind_Direction
201 235 209 32 346 325 310 299 301 72 36 294 46 28 39 40 36 47 58 47 66 94 120 149 181 189 195 191 194 193 200 192 190 193 197 203 204 204 208 213 208 204 206 204
196 228 84 309 284 269 268 287 279 124 103 284 11 88 78 58 52 41 55 58 54 85 107 141 169 196 180 193 203 202 207 200 198 197 216 204 212 209 209 208 206 209 205 207
285 76 338 261 256 249 230 272 334 313 319 225 292 191 141 111 144 99 76 75 71 62 75 68 76 57 242 177 209 208 212 212 206 204 202 221 218 225 212 209 205 206 210 206
241 73 299 294 254 250 230 352 279 275 279 326 330 321 169 136 147 156 104 75 75 73 74 67 69 75 92 82 240 214 219 222 217 199 202 213 198 208 224 210 209 204 209 211
94 243 253 281 27 297 56 342 321 276 266 283 217 268 119 149 198 127 87 68 62 60 59 68 53 48 45 38 17 300 226 218 225 208 222 212 225 222 208 220 211 208 201 210
285 171 267 357 134 341 324 252 229 235 255 262 24 282 287 29 34 135 94 50 27 24 35 51 77 66 31 19 10 344 300 234 224 215 215 229 218 227 219 205 213 209 214 206
182 179 127 262 218 204 259 299 283 251 243 300 81 275 270 39 92 66 16 1 7 5 22 21 34 34 27 17 4 330 279 263 251 236 224 218 224 220 222 211 211 208 210 211
258 181 195 57 357 345 351 333 302 298 296 311 151 260 94 53 133 92 346 322 326 355 0 3 12 16 17 3 1 341 301 276 264 252 243 229 223 222 223 218 225 217 222 215
228 188 131 78 79 302 100 277 3 280 234 259 258 242 228 150 190 278 325 330 342 338 339 343 346 359 353 347 347 340 322 311 311 284 251 234 226 224 227 231 211 229 227 221
86 261 181 130 238 131 309 30 238 192 280 284 264 259 273 164 274 328 327 336 339 325 325 331 332 335 338 336 332 327 321 311 311 310 272 243 233 232 228 236 226 221 230 221
312 259 151 180 213 307 180 216 241 301 290 304 294 267 95 280 324 323 323 332 327 325 318 325 322 330 320 316 320 318 320 312 304 313 313 297 257 230 232 228 229 232 226 228
47 289 272 283 69 313 276 292 274 300 291 253 277 274 325 4 322 309 316 321 324 311 324 325 330 322 312 309 305 310 314 309 313 310 288 279 285 281 261 239 232 232 222 228
81 260 263 226 185 197 233 223 265 288 276 264 280 285 355 268 314 323 320 325 321 324 326 325 321 316 313 304 309 309 306 310 311 327 313 292 268 250 266 257 237 229 225 224
224 273 274 289 332 336 274 249 258 265 279 292 286 296 301 312 316 315 320 317 317 316 319 321 322 319 311 306 302 292 292 294 301 300 305 294 283 266 244 247 232 222 221 225
270 267 282 270 282 276 270 279 279 272 275 272 286 292 302 318 324 314 300 316 318 317 316 326 324 321 317 307 313 293 300 297 311 285 280 282 288 288 268 238 239 240 227 222
220 272 278 276 273 267 271 272 266 266 270 273 281 282 341 16 276 292 311 317 317 314 309 315 320 322 317 322 303 309 294 295 304 285 292 313 308 308 22 43 315 259 246 233
269 284 275 271 288 292 271 256 251 265 272 267 276 321 323 308 314 317 320 313 316 316 309 310 318 313 311 311 306 303 301 303 293 303 295 307 274 271 303 86 124 113 107 78
266 259 278 272 279 260 287 10 302 280 282 283 280 306 330 311 316 311 302 310 312 313 311 310 311 315 293 301 320 318 331 323 309 314 321 325 315 18 200 233 219 162 157 154
241 256 261 255 254 279 281 245 241 266 274 353 292 291 304 316 306 282 40 310 307 304 300 300 302 274 269 301 340 325 313 321 323 327 330 343 343 330 2 329 197 187 182 193
211 245 263 260 273 282 34 94 68 338 266 133 284 311 321 315 293 324 347 318 306 300 296 293 289 249 236 252 259 277 305 357 349 338 357 14 6 8 7 2 325 242 158 154
214 229 244 248 250 272 55 110 160 244 36 348 332 314 310 304 313 317 307 306 306 301 297 293 255 252 216 218 212 179 219 295 315 333 354 9 12 2 2 12 346 353 153 86
241 247 237 228 264 256 92 159 249 353 322 317 306 300 309 305 308 308 314 314 311 303 304 250 239 219 173 199 248 229 238 309 333 339 346 352 6 9 11 31 22 60 96 94
249 251 292 287 329 52 320 294 297 305 299 291 299 309 310 306 311 319 316 318 321 311 283 229 221 184 179 335 353 295 266 304 312 338 347 360 11 10 17 15 73 92 88 75
241 231 253 257 236 261 319 298 301 314 294 294 310 308 310 310 318 315 316 325 320 306 266 232 197 188 188 69 5 295 287 340 314 317 319 316 316 7 359 64 29 88 115 109
297 142 257 261 263 273 279 308 326 306 295 290 295 303 305 310 310 315 314 320 310 306 288 242 202 204 208 178 332 295 298 324 305 308 301 293 263 3 119 55 18 56 49 7
262 260 257 270 300 308 296 298 309 303 301 305 308 307 310 305 308 313 306 322 312 311 310 262 213 192 225 204 256 266 244 238 299 308 286 338 285 219 33 189 129 59 49 58